1 25397U 98043D 09140.58281978 .00000031 00000-0 31941-4 0 08986
2 25397 098.3277 164.4009 0001017 025.6337 334.4886 14.23158955564209
NO-44
1 26931U 01043C 09141.48874922 .00000086 00000-0 65890-4 0 1738
2 26931 067.0503 133.1261 0005576 271.9054 088.1448 14.29556794398760
SO-50
1 27607U 02058C 09140.73038302 -.00000004 00000-0 21525-4 0 08901
2 27607 064.5570 108.4791 0070127 211.9836 147.6985 14.71436291344636
CO-55
1 27844U 03031E 09141.58071482 .00000027 00000-0 33047-4 0 5831
2 27844 098.7118 151.1226 0009074 218.0738 141.9800 14.20637822305486
CO-57
1 27848U 03031J 09141.55453739 .00000028 00000-0 33463-4 0 5306
2 27848 098.7150 150.1586 0008990 221.9260 138.1242 14.20439940305448
AO-51
1 28375U 04025K 09141.57180041 .00000011 00000-0 15877-4 0 3939
2 28375 098.0531 152.7281 0082897 205.6555 154.0512 14.40642135257126
CO-56
1 28941U 06005C 09141.54228669 .00048837 34546-5 18419-3 0 930
2 28941 098.1367 311.0467 0093261 232.4060 126.8708 15.81242167183034
GENESAT1
1 29655U 06058C 09140.94327536 .00012083 00000-0 12176-3 0 07249
2 29655 040.0254 353.9597 0003007 288.0314 072.0175 15.65075849138207
CP3
1 31129U 07012N 09141.64390494 .00000078 00000-0 28785-4 0 9416
2 31129 097.9937 195.9905 0102664 008.2224 352.0621 14.52131207111038
CO-65
1 32785U 08021C 09140.29820262 .00000275 00000-0 41792-4 0 03705
2 32785 097.9446 204.4922 0016058 119.9168 240.3638 14.81482788057317
KKS-1
1 33493U 09002B 09141.74385040 .00000305 00000-0 46736-4 0 4004
2 33493 098.0549 253.8413 0019657 330.9616 029.0507 14.80669085 17559
SOHLA-1
1 33496U 09002E 09141.69372747 .00000045 00000-0 15845-4 0 3626
2 33496 098.0361 251.4181 0007164 017.7776 342.3688 14.69434132 17389
NOAA-10
1 16969U 86073A 09140.60867907 -.00000006 00000-0 15850-4 0 06203
2 16969 098.6925 167.4044 0011471 279.1731 080.8146 14.27386458179576
NOAA-11
1 19531U 88089A 09140.76949693 -.00000194 00000-0 -77839-4 0 06293
2 19531 098.7833 231.1450 0011455 182.8679 177.2417 14.14895255065646
NOAA-12
1 21263U 91032A 09140.94513760 .00000015 00000-0 25239-4 0 01452
2 21263 098.7709 148.9935 0011534 222.3613 137.6677 14.25578845936518
MET-3/5
1 21655U 91056A 09140.95227752 .00000051 00000-0 10000-3 0 06204
2 21655 082.5513 225.7286 0012226 248.7452 111.2365 13.17019248854048
MET-2/21
1 22782U 93055A 09140.77220390 -.00000094 00000-0 -98479-4 0 04639
2 22782 082.5485 203.7515 0023994 065.3541 295.0113 13.83635404793815
OKEAN-4
1 23317U 94066A 09140.83530372 -.00000033 00000-0 -70806-5 0 09147
2 23317 082.5397 000.0148 0023929 093.6042 266.7907 14.82695878788316
NOAA-14
1 23455U 94089A 09141.63095039 -.00000011 00000-0 00000 0 0 6246
2 23455 098.9095 219.3992 0008612 266.2601 093.8063 14.13762998742266
NOAA-15
1 25338U 98030A 09140.80490504 .00000002 00000-0 19384-4 0 09312
2 25338 098.5823 130.6147 0011501 134.2497 225.9624 14.24759831572871
RESURS
1 25394U 98043A 09140.69012966 -.00000005 00000-0 15456-4 0 02208
2 25394 098.3411 174.4343 0001132 337.1069 023.0059 14.24182840564483
FENGYUN1
1 25730U 99025A 09140.92202509 -.00000671 00000-0 -36894-3 0 07936
2 25730 098.7547 111.9037 0020916 301.1996 058.7123 14.07947033516486
OKEAN-0
1 25860U 99039A 09140.87435773 .00000043 00000-0 13922-4 0 6815
2 25860 097.7844 123.1437 0000568 070.5475 289.5798 14.73573269529124
NOAA-16
1 26536U 00055A 09140.80858046 -.00000236 00000-0 -10243-3 0 04086
2 26536 099.1755 143.8134 0010339 003.7917 356.3310 14.12517157446433
NOAA-17
1 27453U 02032A 09140.73912093 -.00000042 00000-0 12602-6 0 04197
2 27453 098.4850 200.7514 0011492 199.2569 160.8169 14.24063542358844
NOAA-18
1 28654U 05018A 09140.68051831 .00000415 00000-0 25389-3 0 09063
2 28654 098.9052 084.1340 0015312 081.6195 278.6695 14.11259927206071
NOAA-19
1 33591U 09005A 09141.71828647 .00000051 00000-0 28275-4 0 1102
2 33591 098.7450 088.1670 0013561 322.1163 037.9523 14.10958212 14704
HUBBLE
1 20580U 90037B 09140.71505625 .00003525 00000-0 25823-3 0 03968
2 20580 028.4708 281.5909 0003273 356.0951 003.9607 15.00807701845724
ISS
1 25544U 98067A 09140.86485477 .00011891 00000-0 89761-4 0 08896
2 25544 051.6396 087.0576 0009718 025.8019 014.7413 15.72927264601658
CO-58
1 28895U 05043F 09141.74285470 -.00000137 00000-0 -19114-4 0 3072
2 28895 098.0618 033.0951 0018938 072.6282 287.6963 14.59767299189876
FALCON
1 30776U 07006E 09141.66506197 .00000341 00000-0 27700-4 0 5726
2 30776 035.4341 260.3245 0001093 002.2749 357.7972 15.03241986121108
MAST
1 31126U 07012K 09140.70501020 .00000070 00000-0 26397-4 0 06009
2 31126 097.9893 196.7643 0095050 005.9280 354.3015 14.53495858111049
CAPE1
1 31130U 07012P 09140.92341082 -.00000225 00000-0 -41143-4 0 06064
2 31130 097.9918 195.2186 0102953 010.6839 349.6453 14.52056383110735
COMPASS
1 32787U 08021E 09141.22280540 .00000343 00000-0 50359-4 0 3615
2 32787 097.9412 205.2708 0016838 118.1258 242.1654 14.81600216 57451
AAUSAT2
1 32788U 08021F 09141.73315891 .00000102 00000-0 19687-4 0 3634
2 32788 097.9435 205.8324 0016883 118.6604 241.6311 14.81721695 57535
DO-64
1 32789U 08021G 09140.74153294 .00000524 00000-0 73112-4 0 03745
2 32789 097.9487 204.9939 0016729 118.2638 242.0266 14.81699430057385
CO-66
1 32791U 08021J 09141.19500959 .00000013 00000-0 84966-5 0 3543
2 32791 097.9463 205.2770 0017044 115.4086 244.8878 14.81430423 57414
RS-30
1 32953U 08025A 09141.54766238 .00000010 00000-0 00000 0 0 3098
2 32953 082.4995 273.1758 0018303 234.8288 125.1080 12.43001056 45080
OBJECTA
1 35001U 09028A 09141.79712030 .00001243 00000-0 37452-4 0 55
2 35001 040.4561 038.4590 0026046 323.4092 036.4948 15.38727394 284
OBJECTB
1 35002U 09028B 09141.79620806 .00003836 00000-0 10000-3 0 87
2 35002 040.4696 038.4430 0028410 327.4292 032.4641 15.39512352 272
OBJECTC
1 35003U 09028C 09141.79589500 .00001235 00000-0 35996-4 0 53
2 35003 040.4708 038.4423 0029441 329.4663 030.4439 15.39779563 281
OBJECTE
1 35005U 09028E 09141.80158962 -.00000246 00000-0 00000 0 0 12
2 35005 040.4690 038.4087 0024131 329.7663 061.0596 15.39658797 271
/EX
1
0
SB KEPS @ AMSAT $ORB09141.O
Orbital Elements 09141.OSCAR
HR AMSAT ORBITAL ELEMENTS FOR OSCAR SATELLITES
FROM WA5QGD FORT WORTH,TX May 21, 2009
Send Subscribe/unsubscribe to KEPS at
http://www.amsat.org/mailman/listinfo/keps
BID: ORB09141.O
TO ALL RADIO AMATEURS BT
Satellite: AO-07
Catalog number: 07530
Epoch time: 09141.51321670
Element set: 483
Inclination: 101.4280 deg
RA of node: 167.1677 deg
Eccentricity: 0.0011499
Arg of perigee: 321.5723 deg
Mean anomaly: 038.4534 deg
Mean motion: 12.53575780 rev/day
Decay rate: -2.7e-07 rev/day^2
Epoch rev: 57937
Checksum: 297
Satellite: FO-29
Catalog number: 24278
Epoch time: 09141.82448630
Element set: 46
Inclination: 098.5581 deg
RA of node: 019.4013 deg
Eccentricity: 0.0351322
Arg of perigee: 058.7636 deg
Mean anomaly: 304.7427 deg
Mean motion: 13.52943770 rev/day
Decay rate: -1.7e-07 rev/day^2
Epoch rev: 63018
Checksum: 305
Satellite: SO-33
Catalog number: 25509
Epoch time: 09140.51715838
Element set: 457
Inclination: 031.4297 deg
RA of node: 208.9503 deg
Eccentricity: 0.0354048
Arg of perigee: 096.6798 deg
Mean anomaly: 267.4253 deg
Mean motion: 14.28250825 rev/day
Decay rate: -1.66e-06 rev/day^2
Epoch rev: 55187
Checksum: 333
Satellite: RS-22
Catalog number: 27939
Epoch time: 09140.77866679
Element set: 0795
Inclination: 097.9493 deg
RA of node: 016.6412 deg
Eccentricity: 0.0012870
Arg of perigee: 215.6304 deg
Mean anomaly: 144.4040 deg
Mean motion: 14.63316865 rev/day
Decay rate: 5.3e-07 rev/day^2
Epoch rev: 30156
Checksum: 319
Satellite: VO-52
Catalog number: 28650
Epoch time: 09141.50766749
Element set: 228
Inclination: 097.7436 deg
RA of node: 203.9687 deg
Eccentricity: 0.0028289
Arg of perigee: 115.6308 deg
Mean anomaly: 244.7818 deg
Mean motion: 14.81585062 rev/day
Decay rate: 2.6e-07 rev/day^2
Epoch rev: 21869
Checksum: 342
/EX
SB KEPS @ AMSAT $ORB09141.D
Orbital Elements 09141.MICROS
HR AMSAT ORBITAL ELEMENTS FOR THE MICROSATS
FROM WA5QGD FORT WORTH,TX May 21, 2009
Send Subscribe/unsubscribe to KEPS at
http://www.amsat.org/mailman/listinfo/keps
BID: ORB09141.D
TO ALL RADIO AMATEURS BT
Satellite: AO-16
Catalog number: 20439
Epoch time: 09141.50938267
Element set: 609
Inclination: 098.2759 deg
RA of node: 111.1279 deg
Eccentricity: 0.0009928
Arg of perigee: 250.8963 deg
Mean anomaly: 109.1154 deg
Mean motion: 14.31824282 rev/day
Decay rate: 1.5e-07 rev/day^2
Epoch rev: 933
Checksum: 306
Satellite: LO-19
Catalog number: 20442
Epoch time: 09140.66241990
Element set: 0530
Inclination: 098.2399 deg
RA of node: 117.6894 deg
Eccentricity: 0.0010922
Arg of perigee: 247.2756 deg
Mean anomaly: 112.7281 deg
Mean motion: 14.32060036 rev/day
Decay rate: 2.7e-07 rev/day^2
Epoch rev: 00937
Checksum: 290
Satellite: AO-27
Catalog number: 22825
Epoch time: 09140.77325857
Element set: 246
Inclination: 098.4332 deg
RA of node: 095.0621 deg
Eccentricity: 0.0008329
Arg of perigee: 351.9217 deg
Mean anomaly: 008.1829 deg
Mean motion: 14.29265349 rev/day
Decay rate: -8.4e-07 rev/day^2
Epoch rev: 81599
Checksum: 329
Satellite: IO-26
Catalog number: 22826
Epoch time: 09141.39822891
Element set: 973
Inclination: 098.4272 deg
RA of node: 096.4275 deg
Eccentricity: 0.0008799
Arg of perigee: 345.7731 deg
Mean anomaly: 014.3203 deg
Mean motion: 14.29517637 rev/day
Decay rate: 1.4e-07 rev/day^2
Epoch rev: 81618
Checksum: 330
Satellite: GO-32
Catalog number: 25397
Epoch time: 09140.58281978
Element set: 0898
Inclination: 098.3277 deg
RA of node: 164.4009 deg
Eccentricity: 0.0001017
Arg of perigee: 025.6337 deg
Mean anomaly: 334.4886 deg
Mean motion: 14.23158955 rev/day
Decay rate: 3.1e-07 rev/day^2
Epoch rev: 56420
Checksum: 324
Satellite: NO-44
Catalog number: 26931
Epoch time: 09141.48874922
Element set: 173
Inclination: 067.0503 deg
RA of node: 133.1261 deg
Eccentricity: 0.0005576
Arg of perigee: 271.9054 deg
Mean anomaly: 088.1448 deg
Mean motion: 14.29556794 rev/day
Decay rate: 8.6e-07 rev/day^2
Epoch rev: 39876
Checksum: 331
Satellite: SO-50
Catalog number: 27607
Epoch time: 09140.73038302
Element set: 0890
Inclination: 064.5570 deg
